North Platte, NE

6:32 PM CDT on June 25, 2017 (GMT -0500)
North Platte Regional-Bird

Weather History for KLBF - December, 2014

Change the Weather History Date:

Sunday, December 14, 2014

  Actual Average Record
Temperature  
Mean Temperature 42 °F 25 °F  
Max Temperature 53 °F 39 °F 67 °F (1894)
Min Temperature 31 °F 11 °F -30 °F (1901)
Degree Days  
Heating Degree Days 23 40  
Month to date heating degree days 410 539  
Since 1 July heating degree days 1930 2090  
Cooling Degree Days 0 0  
Month to date cooling degree days 0 0  
Year to date cooling degree days 744 768  
Moisture  
Dew Point 37 °F    
Average Humidity 91    
Maximum Humidity 100    
Minimum Humidity 82    
Precipitation  
Precipitation 0.49 in 0.01 in 0.51 in (1902)
Month to date precipitation 0.49 0.19  
Year to date precipitation 20.97 20.01  
Snow  
Snow T in 0.10 in 6.00 in (1925)
Month to date snowfall T 2.0  
Since 1 July snowfall 0.4 8.2  
Snow Depth 0.00 in    
Sea Level Pressure  
Sea Level Pressure 29.72 in    
Wind  
Wind Speed 13 mph (NNE)    
Max Wind Speed 35 mph    
Max Gust Speed 42 mph    
Visibility 5 miles    
Events Fog , Rain , Snow , Thunderstorm    
T = Trace of Precipitation, MM = Missing Value Source: NWS Daily Summary

Daily Weather History Graph

Daily Weather History Graph

Search for Another Location

Airport or City:

Trip Planner

Search our weather history database for the weather conditions in past years. The results will help you decide how hot, cold, wet, or windy it might be!

Date:

Astronomy

Dec. 14, 2014 Rise Set
Actual Time 8:00 AM CST 5:14 PM CST
Civil Twilight 7:29 AM CST 5:45 PM CST
Nautical Twilight 6:54 AM CST 6:20 PM CST
Astronomical Twilight 6:20 AM CST 6:53 PM CST
Moon 12:21 AM CST (12/14) 12:49 PM CST (12/14)
Length of Visible Light 10h 16m
Length of Day
9h 14m
Waning Gibbous, 48% of the Moon is Illuminated
Dec 14
Waning Gibbous
Dec 21
New
Dec 28
First Quarter
Jan 4
Full
Jan 13
Last Quarter

Hourly Weather History & Observations

Time (CST) Temp. Windchill Dew Point Humidity Pressure Visibility Wind Dir Wind Speed Gust Speed Precip Events Conditions
12:06 AM 53.1 °F - 48.0 °F 83% 29.71 in 8.0 mi SSE 12.7 mph - N/A   Overcast
12:53 AM 52.0 °F - 48.0 °F 86% 29.68 in 8.0 mi SSE 11.5 mph - N/A   Overcast
1:21 AM 52.0 °F - 48.0 °F 86% 29.69 in 8.0 mi South 13.8 mph - N/A   Scattered Clouds
1:53 AM 51.1 °F - 48.0 °F 89% 29.66 in 8.0 mi SSE 10.4 mph - N/A   Clear
2:53 AM 52.0 °F - 48.0 °F 86% 29.66 in 8.0 mi South 9.2 mph - N/A   Clear
3:53 AM 50.0 °F - 46.9 °F 89% 29.67 in 7.0 mi South 6.9 mph - N/A   Clear
4:53 AM 48.0 °F - 45.0 °F 89% 29.67 in 7.0 mi SSW 4.6 mph - N/A   Clear
5:53 AM 41.0 °F - 41.0 °F 100% 29.69 in 1.2 mi Calm Calm - N/A   Clear
5:55 AM 39.9 °F - 39.9 °F 100% 29.68 in 0.5 mi Calm Calm - N/A Fog Fog
6:04 AM 37.9 °F - 37.9 °F 100% 29.69 in 0.5 mi Calm Calm - N/A Fog Fog
6:17 AM 39.0 °F 36.8 °F 39.0 °F 100% 29.69 in 0.2 mi West 3.5 mph - N/A Fog Fog
6:48 AM 37.4 °F - 37.4 °F 100% 29.70 in 0.2 mi Calm Calm - N/A Fog Fog
6:53 AM 34.0 °F - 34.0 °F 100% 29.72 in 0.2 mi Calm Calm - N/A Fog Fog
7:09 AM 33.1 °F - 32.0 °F 96% 29.70 in 0.2 mi Calm Calm - N/A Fog Fog
7:30 AM 37.0 °F - 36.0 °F 96% 29.71 in 0.5 mi Calm Calm - N/A Fog Fog
7:35 AM 37.0 °F - 36.0 °F 96% 29.71 in 1.5 mi Calm Calm - N/A   Overcast
7:40 AM 37.9 °F - 37.0 °F 97% 29.71 in 3.0 mi Calm Calm - N/A   Overcast
7:51 AM 39.2 °F - 39.2 °F 100% 29.71 in 4.0 mi Calm Calm - N/A   Overcast
7:53 AM 39.9 °F - 39.9 °F 100% 29.72 in 4.0 mi Calm Calm - N/A   Overcast
8:16 AM 43.0 °F - 41.0 °F 93% 29.70 in 4.0 mi Calm Calm - N/A   Overcast
8:53 AM 44.1 °F 40.8 °F 42.1 °F 93% 29.70 in 5.0 mi NE 5.8 mph - N/A   Overcast
9:53 AM 46.9 °F - 45.0 °F 93% 29.71 in 5.0 mi West 3.5 mph - N/A   Overcast
10:28 AM 46.9 °F - 45.0 °F 93% 29.72 in 3.0 mi NNW 3.5 mph - 0.00 in Rain Light Rain
10:53 AM 46.9 °F - 45.0 °F 93% 29.71 in 4.0 mi NNW 5.8 mph - 0.00 in Rain Light Rain
11:27 AM 46.0 °F 41.9 °F 44.1 °F 93% 29.71 in 2.5 mi North 8.1 mph - 0.00 in Rain Light Rain
11:53 AM 46.0 °F 41.9 °F 45.0 °F 96% 29.70 in 2.5 mi North 8.1 mph - 0.01 in Rain Light Rain
12:05 PM 46.0 °F 41.4 °F 44.1 °F 93% 29.71 in 3.0 mi North 9.2 mph - 0.00 in Rain Light Rain
12:31 PM 43.0 °F 35.7 °F 41.0 °F 93% 29.70 in 2.0 mi North 15.0 mph 24.2 mph 0.01 in Rain Light Rain
12:45 PM 42.1 °F 33.3 °F 39.0 °F 89% 29.70 in 3.0 mi NNE 19.6 mph 27.6 mph 0.01 in Rain Light Rain
12:53 PM 41.0 °F 32.2 °F 39.0 °F 93% 29.70 in 4.0 mi NNE 18.4 mph - 0.01 in Rain Light Rain
1:13 PM 39.9 °F 30.2 °F 37.9 °F 93% 29.69 in 2.5 mi NNE 20.7 mph 27.6 mph 0.02 in Rain Rain
1:18 PM 39.9 °F 30.5 °F 37.9 °F 93% 29.70 in 3.0 mi NNE 19.6 mph 27.6 mph 0.03 in Rain Rain
1:34 PM 39.0 °F 32.3 °F 37.0 °F 93% 29.71 in 4.0 mi NNW 10.4 mph - 0.05 in Rain Light Rain
1:53 PM 37.9 °F 30.5 °F 36.0 °F 93% 29.71 in 8.0 mi North 11.5 mph - 0.05 in Rain Light Rain
2:40 PM 37.0 °F 26.7 °F 35.1 °F 93% 29.68 in 6.0 mi NNE 19.6 mph 27.6 mph 0.00 in Rain , Thunderstorm Light Rain
2:53 PM 37.0 °F 31.6 °F 35.1 °F 93% 29.75 in 2.0 mi Variable 6.9 mph 23.0 mph 0.05 in Rain , Thunderstorm Heavy Rain
2:56 PM 37.0 °F 30.4 °F 35.1 °F 93% 29.76 in 1.2 mi South 9.2 mph 23.0 mph 0.03 in Rain , Thunderstorm Heavy Rain
3:04 PM 37.0 °F - 34.0 °F 89% 29.74 in 1.5 mi North - - 0.15 in Rain Heavy Rain
3:13 PM 37.0 °F 28.9 °F 34.0 °F 89% 29.73 in 2.5 mi NNE 12.7 mph 20.7 mph 0.19 in Rain Rain
3:20 PM 37.0 °F 27.4 °F 34.0 °F 89% 29.72 in 3.0 mi North 17.3 mph 24.2 mph 0.22 in Rain Rain
3:26 PM 36.0 °F 25.0 °F 34.0 °F 93% 29.71 in 2.5 mi North 20.7 mph 26.5 mph 0.25 in Rain Rain
3:34 PM 37.0 °F 25.6 °F 34.0 °F 89% 29.70 in 2.5 mi North 24.2 mph 29.9 mph 0.27 in Rain Rain
3:41 PM 37.0 °F 26.7 °F 34.0 °F 89% 29.70 in 4.0 mi NNE 19.6 mph 29.9 mph 0.28 in Rain Light Rain
3:53 PM 37.0 °F 26.2 °F 34.0 °F 89% 29.73 in 4.0 mi NNE 21.9 mph 33.4 mph 0.28 in Rain Light Rain
3:57 PM 37.0 °F 26.2 °F 34.0 °F 89% 29.71 in 4.0 mi NNE 21.9 mph 33.4 mph 0.01 in Rain Light Rain
4:53 PM 36.0 °F 23.7 °F 34.0 °F 93% 29.71 in 4.0 mi NNE 26.5 mph 34.5 mph 0.01 in Snow Light Snow
5:30 PM 36.0 °F 22.6 °F 33.1 °F 89% 29.70 in 5.0 mi NNE 32.2 mph 40.3 mph 0.02 in Rain Light Rain
5:53 PM 35.1 °F 22.0 °F 32.0 °F 89% 29.73 in 4.0 mi NNE 28.8 mph 38.0 mph 0.04 in Rain Rain
6:53 PM 34.0 °F 23.0 °F 30.9 °F 89% 29.79 in 10.0 mi NNE 18.4 mph 26.5 mph 0.04 in Rain Light Rain
7:42 PM 33.1 °F 20.3 °F 30.0 °F 89% 29.73 in 10.0 mi NNE 24.2 mph 36.8 mph 0.00 in   Overcast
7:53 PM 33.1 °F 21.5 °F 30.0 °F 89% 29.78 in 10.0 mi NNE 19.6 mph 41.4 mph 0.00 in   Overcast
8:08 PM 33.8 °F 20.5 °F 30.2 °F 87% 29.73 in 10.0 mi NNE 27.6 mph 35.7 mph N/A   Overcast
8:53 PM 33.1 °F 20.6 °F 28.9 °F 85% 29.79 in 10.0 mi North 23.0 mph 35.7 mph N/A   Overcast
9:10 PM 32.0 °F 21.6 °F 28.9 °F 88% 29.75 in 10.0 mi NNE 15.0 mph 41.4 mph N/A   Overcast
9:53 PM 32.0 °F 20.1 °F 28.9 °F 88% 29.79 in 10.0 mi NNE 19.6 mph 26.5 mph N/A   Overcast
10:16 PM 32.0 °F 19.8 °F 28.9 °F 88% 29.76 in 10.0 mi NNE 20.7 mph 31.1 mph N/A   Overcast
10:36 PM 32.0 °F 20.1 °F 28.9 °F 88% 29.77 in 10.0 mi North 19.6 mph 31.1 mph N/A   Overcast
10:53 PM 32.0 °F 19.2 °F 28.0 °F 85% 29.82 in 10.0 mi NNE 23.0 mph 34.5 mph N/A   Overcast
11:53 PM 30.9 °F 19.8 °F 28.0 °F 89% 29.82 in 10.0 mi North 16.1 mph 27.6 mph N/A   Overcast